Location: Sungai Bunut
(2.6333°N, 113.7333°E)
Time: 14:29:04
(UTC+00:00)

Vanguard 3 - All Passes

Search period start: 03 December 2023 00:00
Search period end: 13 December 2023 00:00
Orbit: 507 x 3241 km, 33.3° (Epoch: 03 December)

Date Brightness Start Highest point End Pass type
(mag) Time Alt. Az. Time Alt. Az. Time Alt. Az.
03 Dec - 01:43:57 10° SW 01:48:08 16° SSW 01:53:36 10° SSE daylight
03 Dec - 06:18:53 10° SSW 06:27:41 15° SSE 06:37:19 10° SE daylight
03 Dec - 08:31:07 10° SSW 08:48:10 36° SSE 09:03:30 10° E daylight
03 Dec - 10:45:57 10° SW 11:05:53 80° SE 11:19:29 10° ENE visible
03 Dec - 13:05:29 10° WSW 13:20:50 41° NW 13:30:29 10° NNE visible
03 Dec - 22:14:02 10° NW 22:17:45 49° NE 22:22:52 10° ESE daylight
04 Dec - 00:25:40 10° WSW 00:29:51 23° SSW 00:35:53 10° SSE daylight
04 Dec - 07:13:12 10° SSW 07:26:49 24° SSE 07:40:59 10° ESE daylight
04 Dec - 09:26:19 10° SW 09:45:41 56° SE 10:01:14 10° ENE daylight
04 Dec - 11:43:07 10° WSW 12:02:06 66° NW 12:14:23 10° NE visible
04 Dec - 14:06:36 10° W 14:16:31 21° NW 14:23:35 10° N visible
04 Dec - 20:59:16 10° N 21:01:25 15° NE 21:03:42 10° ENE visible
04 Dec - 23:08:33 10° WNW 23:12:29 43° SSW 23:18:20 10° SE daylight
05 Dec - 01:24:27 10° SSW 01:26:20 11° SSW 01:28:26 10° S daylight
05 Dec - 05:56:28 10° S 06:05:08 15° SSE 06:14:53 10° SE daylight
05 Dec - 08:07:46 10° SSW 08:24:53 39° SSE 08:41:13 10° E daylight
05 Dec - 10:22:18 10° SW 10:42:32 86° SE 10:57:15 10° NE visible
05 Dec - 12:42:03 10° W 12:57:57 39° NW 13:08:25 10° NNE visible
05 Dec - 21:52:17 10° NW 21:55:56 64° NE 22:00:37 10° ESE visible
06 Dec - 00:04:56 10° WSW 00:08:06 16° SSW 00:12:12 10° SSE daylight
06 Dec - 06:50:15 10° SSW 07:03:48 26° SSE 07:18:36 10° E daylight
06 Dec - 09:02:51 10° SW 09:22:12 61° SE 09:38:51 10° ENE daylight
06 Dec - 11:19:32 10° WSW 11:38:51 62° NW 11:52:07 10° NE visible
06 Dec - 13:43:29 10° WNW 13:54:01 21° NW 14:01:40 10° NNE visible
06 Dec - 20:36:54 10° NNW 20:39:35 18° NNE 20:42:18 10° E visible
06 Dec - 22:47:13 10° W 22:50:44 31° SSW 22:55:28 10° SSE daylight
07 Dec - 05:34:04 10° S 05:42:34 16° SSE 05:52:21 10° ESE daylight
07 Dec - 07:44:34 10° SSW 08:01:30 42° SE 08:18:42 10° E daylight
07 Dec - 09:58:48 10° SW 10:19:01 89° NW 10:34:49 10° NE daylight
07 Dec - 12:18:40 10° W 12:34:58 37° NW 12:46:15 10° NNE visible
07 Dec - 14:50:15 10° NNW 14:50:49 10° NNW 14:51:22 10° NNW visible
07 Dec - 21:30:31 10° NW 21:34:10 87° NE 21:38:26 10° SE visible
07 Dec - 23:44:59 10° SW 23:46:22 11° SSW 23:47:55 10° S daylight
08 Dec - 06:27:24 10° SSW 06:40:43 28° SSE 06:56:01 10° E daylight
08 Dec - 08:39:33 10° SW 08:58:36 66° SE 09:16:16 10° ENE daylight
08 Dec - 10:56:05 10° WSW 11:15:28 59° NW 11:29:45 10° NE visible
08 Dec - 13:20:22 10° WNW 13:31:28 21° NNW 13:39:42 10° NNE visible
08 Dec - 20:14:32 10° NNW 20:17:47 24° NNE 20:20:51 10° E visible
08 Dec - 22:25:59 10° W 22:29:00 22° SSW 22:32:39 10° SSE daylight
09 Dec - 05:11:41 10° S 05:19:56 16° SSE 05:29:42 10° ESE daylight
09 Dec - 07:21:32 10° SSW 07:38:02 45° SE 07:55:58 10° ENE daylight
09 Dec - 09:35:28 10° SW 09:55:23 84° NW 10:12:14 10° NE daylight
09 Dec - 11:55:21 10° W 12:11:56 36° NW 12:23:59 10° NNE visible
09 Dec - 14:25:37 10° NW 14:28:42 11° NNW 14:31:27 10° N visible
09 Dec - 19:00:11 10° NNE 19:00:43 10° NNE 19:01:13 10° NNE night (unlit)
09 Dec - 21:08:43 10° WNW 21:12:24 68° SW 21:16:20 10° SE visible
10 Dec - 06:04:41 10° SSW 06:17:35 29° SE 06:33:13 10° E daylight
10 Dec - 08:16:24 10° SW 08:34:55 71° SE 08:53:29 10° ENE daylight
10 Dec - 10:32:47 10° WSW 10:52:01 55° NW 11:07:13 10° NE visible
10 Dec - 12:57:14 10° WNW 13:08:52 21° NNW 13:17:41 10° NNE visible
10 Dec - 19:52:08 10° NW 19:56:01 33° NNE 19:59:22 10° E visible
10 Dec - 22:04:54 10° WSW 22:07:13 16° SSW 22:09:47 10° S daylight
11 Dec - 04:49:20 10° S 04:57:18 16° SSE 05:06:57 10° ESE daylight
11 Dec - 06:58:39 10° SSW 07:14:31 49° SE 07:33:03 10° ENE daylight
11 Dec - 09:12:17 10° WSW 09:31:40 79° NW 09:49:28 10° NE daylight
11 Dec - 11:32:09 10° W 11:48:50 34° NNW 12:01:36 10° NNE visible
11 Dec - 14:01:51 10° NW 14:06:32 12° NNW 14:10:35 10° N visible
11 Dec - 18:36:00 10° NNW 18:38:58 15° NNE 18:41:27 10° ENE night (unlit)
11 Dec - 20:46:52 10° WNW 20:50:38 48° SW 20:54:15 10° SE visible
12 Dec - 05:42:03 10° SSW 05:54:26 31° SE 06:10:15 10° E daylight
12 Dec - 07:53:26 10° SW 08:11:11 76° SE 08:30:30 10° ENE daylight
12 Dec - 10:09:39 10° WSW 10:28:30 52° NW 10:44:33 10° NE visible
12 Dec - 12:34:08 10° WNW 12:46:14 21° NNW 12:55:37 10° NNE visible
12 Dec - 19:29:40 10° NW 19:34:16 46° NNE 19:37:50 10° ESE visible
12 Dec - 21:44:17 10° SW 21:45:23 11° SSW 21:46:31 10° SSW visible
